Waarnemingen

Advertentie
Mijn weer
Charterhall, Groot Brittannië (3158): temperatuur & dauwpunt: 31.05.2020 02:00:00 - 06.06.2020 02:00:00 (BST)Charterhall, Groot Brittannië (3158): temperatuur -20cm & temperatuur -100cm: 31.05.2020 02:00:00 - 06.06.2020 02:00:00 (BST)Charterhall, Groot Brittannië (3158): windsnelheid & windstoten: 31.05.2020 02:00:00 - 06.06.2020 02:00:00 (BST)Charterhall, Groot Brittannië (3158): windrichting: 31.05.2020 02:00:00 - 06.06.2020 02:00:00 (BST)Charterhall, Groot Brittannië (3158): luchtdruk: 31.05.2020 02:00:00 - 06.06.2020 02:00:00 (BST)Charterhall, Groot Brittannië (3158): zicht: 31.05.2020 02:00:00 - 06.06.2020 02:00:00 (BST)Charterhall, Groot Brittannië (3158): Zonneschijnduur: 31.05.2020 02:00:00 - 06.06.2020 02:00:00 (BST)Charterhall, Groot Brittannië (3158): neerslag: 31.05.2020 02:00:00 - 06.06.2020 02:00:00 (BST)
Datum & Tijd tt [°C] td [°C] tt -20cm [°C] tt -100cm [°C] ff [km/u] ff [kn] fx [km/u] fx [kn] dd ppp [hPa] vv [km] sd [min] rr [mm]
06.06.2020 02:00:00 7,3 5,6 - - 21 11 - - WNW 987,5 50 0 0,0
06.06.2020 01:00:00 7,1 5,3 - - 18 10 - - W 987,2 50 - 0,0
06.06.2020 00:00:00 7,1 4,8 - - 22 12 46 25 WNW 987,2 50 0 0,0
05.06.2020 23:00:00 6,3 4,8 - - 29 16 52 28 W 987,2 28 0 0,2
05.06.2020 22:00:00 6,0 4,5 - - 35 19 61 33 W 987,6 40 0 1,2
05.06.2020 21:00:00 6,2 4,9 - - 29 16 54 29 W 988,2 14 0 2,2
05.06.2020 20:00:00 7,3 4,6 - - 28 15 63 34 W 989,3 19 0 0,2
05.06.2020 19:00:00 11,0 1,8 - - 34 18 59 32 WNW 989,0 35 0 0,0
05.06.2020 18:00:00 12,0 2,1 - - 21 11 54 29 W 989,1 50 6 0,0
05.06.2020 17:00:00 11,6 1,7 - - 28 15 48 26 WNW 989,5 40 12 0,0
05.06.2020 16:00:00 12,6 3,0 - - 29 16 48 26 W 990,1 24 54 0,0
05.06.2020 15:00:00 11,8 5,4 - - 24 13 67 36 W 991,1 40 36 0,2
05.06.2020 14:00:00 12,6 3,3 - - 28 15 48 26 WNW 991,6 30 42 0,0
05.06.2020 13:00:00 12,2 2,6 - - 28 15 50 27 WNW 992,0 35 54 0,0
05.06.2020 12:00:00 11,9 2,9 - - 24 13 - - WNW 992,7 22 54 0,0
05.06.2020 11:00:00 10,4 3,3 - - 26 14 - - WNW 993,3 40 48 0,0
05.06.2020 10:00:00 9,7 3,8 13,4 11,9 24 13 - - NW 993,9 26 54 0,0
05.06.2020 09:00:00 7,5 3,5 - - 24 13 46 25 NW 994,3 14 42 0,0
05.06.2020 08:00:00 8,5 2,9 - - 21 11 - - WNW 994,4 50 60 0,0
05.06.2020 07:00:00 6,2 2,8 - - 15 8 - - NW 994,7 50 6 0,0
05.06.2020 06:00:00 5,8 3,3 - - 11 6 - - NW 995,2 50 0 0,0
05.06.2020 05:00:00 6,0 4,6 - - 13 7 - - WNW 995,6 50 0 0,0
05.06.2020 04:00:00 5,6 4,4 - - 9 5 - - W 996,1 50 0 0,0
05.06.2020 03:00:00 5,8 4,4 - - 11 6 - - WNW 996,5 50 0 0,0
05.06.2020 02:00:00 5,1 3,8 - - 13 7 - - WNW 997,0 50 0 0,0
05.06.2020 01:00:00 5,5 4,2 - - 5 3 - - NW 997,7 50 - 0,0
05.06.2020 00:00:00 6,6 5,4 - - 5 3 - - NW 998,3 50 0 0,2
04.06.2020 23:00:00 6,9 6,0 - - 4 2 - - N 998,6 50 0 0,0
04.06.2020 22:00:00 7,2 6,4 - - 5 3 - - NNO 999,1 50 0 0,0
04.06.2020 21:00:00 7,2 6,3 - - 13 7 - - NO 999,2 14 0 0,2
04.06.2020 20:00:00 7,8 5,6 - - 15 8 - - NO 999,2 35 0 0,0
04.06.2020 19:00:00 8,5 5,5 - - 15 8 - - O 999,3 50 0 0,0
04.06.2020 18:00:00 9,8 5,1 - - 15 8 - - O 999,2 50 0 0,0
04.06.2020 17:00:00 10,3 6,5 - - 18 10 - - ONO 999,4 50 0 0,0
04.06.2020 16:00:00 12,3 7,7 - - 8 4 - - ZO 999,8 45 18 0,0
04.06.2020 15:00:00 11,8 8,9 - - 5 3 - - ZO 1000,5 50 0 0,0
04.06.2020 14:00:00 9,6 7,9 - - 5 3 - - ZZW 1001,5 23 0 0,2
04.06.2020 13:00:00 10,6 6,3 - - 4 2 - - OZO 1001,9 50 0 0,6
04.06.2020 12:00:00 11,1 4,9 - - 8 4 - - WNW 1002,4 40 0 0,0
04.06.2020 11:00:00 11,4 5,5 - - 8 4 - - W 1002,7 50 6 0,0
04.06.2020 10:00:00 10,8 4,2 14,0 11,9 9 5 - - WNW 1003,4 28 0 0,0
04.06.2020 09:00:00 10,3 5,8 - - 8 4 - - W 1004,2 40 6 0,0
04.06.2020 08:00:00 9,9 7,3 - - 4 2 - - W 1004,7 50 30 0,0
04.06.2020 07:00:00 7,8 6,6 - - 5 3 - - W 1005,4 50 0 0,0
04.06.2020 06:00:00 7,1 6,4 - - 8 4 - - W 1006,3 50 0 0,4
04.06.2020 05:00:00 6,9 5,7 - - 5 3 - - WNW 1007,2 35 0 0,0
04.06.2020 04:00:00 6,9 5,4 - - 9 5 - - NW 1007,8 50 0 0,0
04.06.2020 03:00:00 7,2 5,8 - - 8 4 - - WNW 1008,7 50 0 0,0
04.06.2020 02:00:00 7,6 6,2 - - 5 3 - - WNW 1009,7 50 0 0,0
04.06.2020 01:00:00 7,9 7,0 - - 5 3 - - W 1010,7 50 - 0,0
04.06.2020 00:00:00 8,1 6,8 - - 2 1 - - NO 1011,3 50 0 0,0
03.06.2020 23:00:00 8,3 6,4 - - 8 4 - - NNO 1012,2 45 0 0,0
03.06.2020 22:00:00 8,7 6,6 - - 8 4 - - NNO 1012,6 45 0 0,0
03.06.2020 21:00:00 8,8 6,5 - - 11 6 - - NNO 1012,8 45 6 0,0
03.06.2020 20:00:00 10,1 6,4 - - 21 11 - - N 1012,9 45 30 0,0
03.06.2020 19:00:00 10,4 7,0 - - 26 14 - - NNO 1013,3 40 6 0,0
03.06.2020 18:00:00 10,4 7,5 - - 21 11 - - N 1013,5 50 0 0,0
03.06.2020 17:00:00 10,3 7,5 - - 18 10 - - N 1014,1 30 0 0,0
03.06.2020 16:00:00 11,0 6,1 - - 22 12 - - N 1014,2 50 6 0,0
03.06.2020 15:00:00 12,5 7,6 - - 26 14 - - N 1014,3 50 24 0,0
03.06.2020 14:00:00 12,0 7,0 - - 26 14 - - NNO 1014,6 50 6 0,0
03.06.2020 13:00:00 10,7 5,5 - - 21 11 - - N 1015,2 45 0 0,0
03.06.2020 12:00:00 11,2 6,4 - - 28 15 - - N 1015,5 35 6 0,0
03.06.2020 11:00:00 10,4 6,4 - - 24 13 50 27 N 1015,7 35 0 0,0
03.06.2020 10:00:00 9,5 5,6 14,7 11,9 28 15 48 26 N 1015,7 50 0 0,0
03.06.2020 09:00:00 9,0 6,0 - - 24 13 - - NNO 1015,8 50 0 0,0
03.06.2020 08:00:00 8,8 6,7 - - 22 12 - - N 1015,9 45 0 0,0
03.06.2020 07:00:00 8,2 6,7 - - 21 11 - - NNO 1015,8 45 0 0,2
03.06.2020 06:00:00 8,2 7,3 - - 22 12 - - NNO 1015,6 21 0 0,6
03.06.2020 05:00:00 8,3 7,6 - - 22 12 - - NNO 1015,6 9 0 1,8
03.06.2020 04:00:00 8,3 7,5 - - 22 12 - - NNO 1015,6 19 0 1,4
03.06.2020 03:00:00 8,7 8,1 - - 22 12 - - NNO 1015,8 18 0 1,4
03.06.2020 02:00:00 9,1 8,5 - - 22 12 - - NNO 1016,0 14 0 2,2
03.06.2020 01:00:00 10,0 9,6 - - 16 9 - - NNO 1016,0 7 - 2,4
03.06.2020 00:00:00 10,4 10,0 - - 21 11 - - NO 1016,2 7 0 0,4
02.06.2020 23:00:00 10,5 9,9 - - 21 11 - - NO 1016,4 14 0 0,2
02.06.2020 22:00:00 11,0 10,5 - - 13 7 - - ONO 1016,4 11 0 0,2
02.06.2020 21:00:00 11,7 10,9 - - 15 8 - - NNO 1016,5 14 0 0,6
02.06.2020 20:00:00 12,7 10,3 - - 18 10 - - N 1016,4 26 0 0,0
02.06.2020 19:00:00 16,3 12,7 - - 8 4 - - NNW 1016,0 50 0 0,0
02.06.2020 18:00:00 17,4 12,9 - - 2 1 - - NW 1016,3 40 0 0,4
02.06.2020 17:00:00 17,0 11,7 - - 9 5 - - ONO 1016,9 40 0 0,0
02.06.2020 16:00:00 18,1 11,8 - - 5 3 - - O 1017,4 40 0 0,0
02.06.2020 15:00:00 20,1 11,1 - - 9 5 - - O 1017,5 50 0 0,0
02.06.2020 14:00:00 20,7 10,4 - - 5 3 - - NNO 1018,0 45 6 0,0
02.06.2020 13:00:00 23,4 11,0 - - 8 4 - - Z 1018,4 40 60 0,0
02.06.2020 12:00:00 21,9 11,6 - - 5 3 - - Z 1019,3 40 48 0,0
02.06.2020 11:00:00 19,6 11,7 - - 8 4 - - Z 1020,3 45 18 0,0
02.06.2020 10:00:00 18,7 11,3 - - 9 5 - - Z 1020,9 45 60 -
02.06.2020 09:00:00 16,9 9,8 - - 9 5 - - ZW 1021,5 45 54 -
02.06.2020 08:00:00 14,4 8,6 - - 9 5 - - ZW 1021,9 40 54 0,0
02.06.2020 07:00:00 10,9 8,7 - - 4 2 - - ZZW 1022,5 45 6 0,0
02.06.2020 06:00:00 9,4 7,3 - - 11 6 - - W 1022,7 50 0 0,0
02.06.2020 05:00:00 8,6 6,5 - - 9 5 - - W 1023,3 50 0 0,0
02.06.2020 04:00:00 9,0 6,7 - - 8 4 - - W 1023,7 50 0 0,0
02.06.2020 03:00:00 9,0 5,8 - - 9 5 - - W 1024,0 50 0 0,0
02.06.2020 02:00:00 9,8 6,2 - - 11 6 - - WZW 1024,5 50 0 0,0
02.06.2020 01:00:00 9,7 6,9 - - 11 6 - - WZW 1024,9 50 - 0,0
02.06.2020 00:00:00 10,6 8,8 - - 9 5 - - W 1025,1 50 0 0,0
01.06.2020 23:00:00 12,1 9,3 - - 8 4 - - NNW 1025,2 50 0 0,0
01.06.2020 22:00:00 13,4 9,5 - - 8 4 - - NNO 1025,2 45 12 0,0
01.06.2020 21:00:00 14,4 8,9 - - 8 4 - - O 1025,1 50 6 0,0
01.06.2020 20:00:00 16,5 8,3 - - 13 7 - - OZO 1025,1 50 48 0,0
01.06.2020 19:00:00 19,3 8,6 - - 15 8 - - OZO 1025,2 50 60 0,0
01.06.2020 18:00:00 19,8 6,8 - - 15 8 - - O 1025,3 35 60 0,0
01.06.2020 17:00:00 20,6 7,2 - - 16 9 - - O 1025,6 50 60 0,0
01.06.2020 16:00:00 21,0 7,4 - - 16 9 - - O 1026,0 50 60 0,0
01.06.2020 15:00:00 21,4 6,6 - - 18 10 - - OZO 1026,1 35 60 0,0
01.06.2020 14:00:00 21,7 7,6 - - 16 9 - - O 1026,3 50 60 0,0
01.06.2020 13:00:00 21,8 8,9 - - 13 7 - - OZO 1026,4 30 60 0,0
01.06.2020 12:00:00 20,8 9,0 - - 13 7 - - O 1026,7 40 60 0,0
01.06.2020 11:00:00 19,8 8,9 - - 9 5 - - OZO 1027,0 35 60 0,0
01.06.2020 10:00:00 18,1 8,3 14,7 11,7 8 4 - - O 1027,3 50 60 0,0
01.06.2020 09:00:00 16,5 9,5 - - 4 2 - - NO 1027,5 45 60 0,0
01.06.2020 08:00:00 14,1 9,1 - - 2 1 - - ZW 1027,5 40 60 0,0
01.06.2020 07:00:00 11,3 8,9 - - 2 1 - - W 1027,7 40 54 0,0
01.06.2020 06:00:00 7,2 6,1 - - 5 3 - - WZW 1027,6 45 36 0,0
01.06.2020 05:00:00 5,8 4,7 - - 5 3 - - WZW 1027,3 50 0 0,0
01.06.2020 04:00:00 6,9 5,6 - - 5 3 - - NW 1027,1 50 0 0,0
01.06.2020 03:00:00 6,8 5,5 - - 4 2 - - ONO 1027,2 50 0 0,0
01.06.2020 02:00:00 8,2 6,5 - - 8 4 - - NNW 1027,1 50 0 0,0
01.06.2020 01:00:00 9,7 7,8 - - 9 5 - - NNW 1027,2 50 - 0,0
01.06.2020 00:00:00 10,3 9,0 - - 9 5 - - N 1027,3 50 0 0,0
31.05.2020 23:00:00 10,9 9,7 - - 9 5 - - N 1027,2 30 0 0,0
31.05.2020 22:00:00 12,0 10,2 - - 13 7 - - NNO 1026,8 50 6 0,0
31.05.2020 21:00:00 14,0 9,8 - - 13 7 - - NNO 1026,4 50 60 0,0
31.05.2020 20:00:00 15,9 9,7 - - 13 7 - - ONO 1026,1 50 60 0,0
31.05.2020 19:00:00 17,1 9,6 - - 21 11 - - O 1025,7 50 60 0,0
31.05.2020 18:00:00 18,1 9,4 - - 22 12 - - ONO 1025,6 50 60 0,0
31.05.2020 17:00:00 18,1 8,8 - - 22 12 - - ONO 1025,7 50 60 0,0
31.05.2020 16:00:00 18,8 7,6 - - 22 12 - - O 1026,0 50 60 0,0
31.05.2020 15:00:00 19,4 7,7 - - 22 12 - - O 1026,1 50 60 0,0
31.05.2020 14:00:00 19,2 7,9 - - 21 11 - - ONO 1026,3 50 60 0,0
31.05.2020 13:00:00 18,7 7,8 - - 22 12 - - ONO 1026,6 30 60 0,0
31.05.2020 12:00:00 18,2 7,5 - - 22 12 - - O 1026,9 30 60 0,0
31.05.2020 11:00:00 17,7 9,6 - - 16 9 - - O 1026,9 30 60 0,0
31.05.2020 10:00:00 16,0 10,2 14,4 11,4 15 8 - - O 1027,3 40 60 0,0
31.05.2020 09:00:00 13,7 10,9 - - 9 5 - - O 1027,5 25 54 0,0
31.05.2020 08:00:00 10,8 9,1 - - 8 4 - - ONO 1027,8 13 60 0,0
31.05.2020 07:00:00 10,3 9,4 - - 8 4 - - NO 1027,5 12 54 0,0
31.05.2020 06:00:00 8,4 8,1 - - 9 5 - - NNO 1027,2 10 12 0,0
31.05.2020 05:00:00 7,8 7,5 - - 9 5 - - NNO 1027,0 11 0 0,0
31.05.2020 04:00:00 7,9 7,6 - - 9 5 - - NNO 1026,9 11 0 0,0
31.05.2020 03:00:00 8,0 7,7 - - 13 7 - - N 1027,0 12 0 0,0
31.05.2020 02:00:00 8,1 7,5 - - 11 6 - - NNO 1027,0 17 0 0,0

tt = temperatuur
td = dauwpunt
tt -20cm = temperatuur -20cm
tt -100cm = temperatuur -100cm
ff = windsnelheid
fx = windstoten
dd = windrichting
ppp = luchtdruk
vv = zicht
sd = Zonneschijnduur
rr = neerslag

Weerstations in de omgeving